Time,TemperatureF,DewpointF,PressureIn,WindDirection,WindDirectionDegrees,WindSpeedMPH,WindSpeedGustMPH,Humidity,HourlyPrecipIn,Conditions,Clouds,dailyrainin,SoftwareType,DateUTC
2013-04-12 00:01:00,40.7,38.3,30.02,ESE,113,0.0,0.2,91,0.00,,,0.00,WUHU216HW,2013-04-12 07:01:00,
2013-04-12 00:06:00,40.9,38.4,30.02,East,90,0.0,0.2,91,0.00,,,0.00,WUHU216HW,2013-04-12 07:06:00,
2013-04-12 00:11:00,40.9,38.4,30.02,ESE,113,0.0,0.4,91,0.00,,,0.00,WUHU216HW,2013-04-12 07:11:00,
2013-04-12 00:16:00,40.9,38.4,30.02,ESE,113,0.0,0.4,91,0.00,,,0.00,WUHU216HW,2013-04-12 07:16:00,
2013-04-12 00:21:00,40.9,38.4,30.02,ESE,113,0.0,0.0,91,0.00,,,0.00,WUHU216HW,2013-04-12 07:21:00,
2013-04-12 00:27:00,40.9,38.7,30.02,ESE,113,0.0,0.0,92,0.00,,,0.00,WUHU216HW,2013-04-12 07:27:00,
2013-04-12 00:32:00,40.9,38.4,30.02,ESE,113,0.0,0.0,91,0.00,,,0.00,WUHU216HW,2013-04-12 07:32:00,
2013-04-12 00:37:00,40.9,38.7,30.01,East,90,0.0,0.0,92,0.00,,,0.00,WUHU216HW,2013-04-12 07:37:00,
2013-04-12 00:42:00,40.9,38.4,30.01,East,90,0.0,0.0,91,0.00,,,0.00,WUHU216HW,2013-04-12 07:42:00,
2013-04-12 00:47:00,40.7,38.3,30.01,SE,135,0.0,0.0,91,0.00,,,0.00,WUHU216HW,2013-04-12 07:47:00,
2013-04-12 00:52:00,40.7,38.3,30.01,SE,135,0.0,0.4,91,0.00,,,0.00,WUHU216HW,2013-04-12 07:52:00,
2013-04-12 00:57:00,40.7,38.3,30.01,SE,135,0.0,0.9,91,0.00,,,0.00,WUHU216HW,2013-04-12 07:57:00,
2013-04-12 01:02:00,40.3,37.9,30.01,SE,135,0.0,0.9,91,0.00,,,0.00,WUHU216HW,2013-04-12 08:02:00,
2013-04-12 01:07:00,39.8,37.4,30.00,SE,135,0.0,0.0,91,0.00,,,0.00,WUHU216HW,2013-04-12 08:07:00,
2013-04-12 01:12:00,39.6,37.2,30.00,SSE,158,0.0,0.4,91,0.00,,,0.00,WUHU216HW,2013-04-12 08:12:00,
2013-04-12 01:17:00,39.4,37.0,30.00,SSE,158,0.4,0.7,91,0.00,,,0.00,WUHU216HW,2013-04-12 08:17:00,
2013-04-12 01:22:00,39.4,37.0,30.00,SSE,158,0.2,1.1,91,0.00,,,0.00,WUHU216HW,2013-04-12 08:22:00,
2013-04-12 01:27:00,39.2,36.8,30.00,SSE,158,0.0,1.1,91,0.00,,,0.00,WUHU216HW,2013-04-12 08:27:00,
2013-04-12 01:32:00,39.1,36.6,30.00,SSE,158,0.0,0.7,91,0.00,,,0.00,WUHU216HW,2013-04-12 08:32:00,
2013-04-12 01:37:00,38.7,36.0,30.01,SSE,158,0.0,0.0,90,0.00,,,0.00,WUHU216HW,2013-04-12 08:37:00,
2013-04-12 01:42:00,38.7,36.0,30.01,SSE,158,0.0,0.0,90,0.00,,,0.00,WUHU216HW,2013-04-12 08:42:00,
2013-04-12 01:47:00,38.7,36.0,30.00,SSE,158,0.0,0.0,90,0.00,,,0.00,WUHU216HW,2013-04-12 08:47:00,
2013-04-12 01:52:00,38.7,36.3,30.00,SSE,158,0.0,0.0,91,0.00,,,0.00,WUHU216HW,2013-04-12 08:52:00,
2013-04-12 01:57:00,38.7,36.3,30.00,SSE,158,0.0,0.0,91,0.00,,,0.00,WUHU216HW,2013-04-12 08:57:00,
2013-04-12 02:02:00,38.9,36.5,30.00,SSE,158,0.0,0.4,91,0.00,,,0.00,WUHU216HW,2013-04-12 09:02:00,
2013-04-12 02:07:00,39.1,36.9,30.00,SSE,158,0.0,0.4,92,0.00,,,0.00,WUHU216HW,2013-04-12 09:07:00,
2013-04-12 02:12:00,39.1,36.6,30.00,SSE,158,0.0,0.0,91,0.00,,,0.00,WUHU216HW,2013-04-12 09:12:00,
2013-04-12 02:17:00,39.1,36.6,30.00,SSW,203,0.4,1.1,91,0.00,,,0.00,WUHU216HW,2013-04-12 09:17:00,
2013-04-12 02:22:00,39.2,37.4,30.00,SE,135,0.0,1.1,93,0.00,,,0.00,WUHU216HW,2013-04-12 09:22:00,
2013-04-12 02:27:00,39.1,36.9,29.99,WSW,248,0.2,0.9,92,0.00,,,0.00,WUHU216HW,2013-04-12 09:27:00,
2013-04-12 02:32:00,39.1,37.2,29.99,North,0,0.0,0.7,93,0.00,,,0.00,WUHU216HW,2013-04-12 09:32:00,
2013-04-12 02:37:00,39.1,37.2,29.99,North,0,0.0,0.0,93,0.00,,,0.00,WUHU216HW,2013-04-12 09:37:00,
2013-04-12 02:42:00,39.2,37.4,29.99,SSE,158,0.0,0.4,93,0.00,,,0.00,WUHU216HW,2013-04-12 09:42:00,
2013-04-12 02:47:00,39.1,36.9,29.99,South,180,0.0,0.4,92,0.00,,,0.00,WUHU216HW,2013-04-12 09:47:00,
2013-04-12 02:52:00,39.1,36.9,29.99,South,180,0.4,1.1,92,0.00,,,0.00,WUHU216HW,2013-04-12 09:52:00,
2013-04-12 02:57:00,39.1,36.9,29.99,South,180,0.0,1.1,92,0.00,,,0.00,WUHU216HW,2013-04-12 09:57:00,
2013-04-12 03:02:00,38.9,36.7,29.99,South,180,0.2,0.7,92,0.00,,,0.00,WUHU216HW,2013-04-12 10:02:00,
2013-04-12 03:07:00,39.1,36.9,29.99,SSW,203,0.0,0.7,92,0.00,,,0.00,WUHU216HW,2013-04-12 10:07:00,
2013-04-12 03:12:00,39.2,37.4,29.99,South,180,0.7,1.3,93,0.00,,,0.00,WUHU216HW,2013-04-12 10:12:00,
2013-04-12 03:17:00,39.2,37.4,29.99,SSE,158,0.4,1.3,93,0.00,,,0.00,WUHU216HW,2013-04-12 10:17:00,
2013-04-12 03:22:00,39.4,37.3,29.99,SSE,158,0.0,1.1,92,0.00,,,0.00,WUHU216HW,2013-04-12 10:22:00,
2013-04-12 03:27:00,39.2,37.1,29.99,SSE,158,0.0,0.0,92,0.00,,,0.00,WUHU216HW,2013-04-12 10:27:00,
2013-04-12 03:32:00,39.4,37.3,29.99,SSE,158,0.0,0.0,92,0.00,,,0.00,WUHU216HW,2013-04-12 10:32:00,
2013-04-12 03:37:00,39.6,37.4,29.99,SSW,203,0.0,0.0,92,0.00,,,0.00,WUHU216HW,2013-04-12 10:37:00,
2013-04-12 03:42:00,39.6,37.4,29.99,SSW,203,0.0,0.0,92,0.00,,,0.00,WUHU216HW,2013-04-12 10:42:00,
2013-04-12 03:47:00,39.4,37.3,29.99,SSW,203,0.0,0.0,92,0.00,,,0.00,WUHU216HW,2013-04-12 10:47:00,
2013-04-12 03:52:00,39.2,37.1,29.99,SSW,203,0.0,0.0,92,0.00,,,0.00,WUHU216HW,2013-04-12 10:52:00,
2013-04-12 03:57:00,39.2,37.4,29.98,SSW,203,0.0,0.0,93,0.00,,,0.00,WUHU216HW,2013-04-12 10:57:00,
2013-04-12 04:02:00,39.2,37.1,29.98,SSW,203,0.0,0.0,92,0.00,,,0.00,WUHU216HW,2013-04-12 11:02:00,
2013-04-12 04:07:00,39.1,36.9,29.98,SSW,203,0.0,0.0,92,0.00,,,0.00,WUHU216HW,2013-04-12 11:07:00,
2013-04-12 04:12:00,39.1,37.2,29.98,SSW,203,0.0,0.0,93,0.00,,,0.00,WUHU216HW,2013-04-12 11:12:00,
2013-04-12 04:17:00,39.1,37.2,29.98,SSE,158,0.0,0.0,93,0.00,,,0.00,WUHU216HW,2013-04-12 11:17:00,
2013-04-12 04:22:00,39.1,37.2,29.97,NE,45,0.0,0.0,93,0.00,,,0.00,WUHU216HW,2013-04-12 11:22:00,
2013-04-12 04:27:00,39.1,37.2,29.97,NE,45,0.0,0.0,93,0.00,,,0.00,WUHU216HW,2013-04-12 11:27:00,
2013-04-12 04:32:00,39.1,37.2,29.96,South,180,0.4,0.4,93,0.00,,,0.00,WUHU216HW,2013-04-12 11:32:00,
2013-04-12 04:37:00,38.9,37.0,29.96,SSW,203,0.4,0.9,93,0.00,,,0.00,WUHU216HW,2013-04-12 11:37:00,
2013-04-12 04:42:00,38.9,36.7,29.96,SE,135,0.7,1.1,92,0.00,,,0.00,WUHU216HW,2013-04-12 11:42:00,
2013-04-12 04:47:00,38.9,36.7,29.96,SSE,158,0.0,1.1,92,0.00,,,0.00,WUHU216HW,2013-04-12 11:47:00,
2013-04-12 04:53:00,38.7,36.5,29.95,SE,135,0.4,0.4,92,0.00,,,0.00,WUHU216HW,2013-04-12 11:53:00,
2013-04-12 04:58:00,38.7,36.5,29.95,SSE,158,0.0,0.4,92,0.00,,,0.00,WUHU216HW,2013-04-12 11:58:00,
2013-04-12 05:03:00,38.5,36.4,29.95,SSE,158,0.0,0.4,92,0.00,,,0.00,WUHU216HW,2013-04-12 12:03:00,
2013-04-12 05:08:00,38.5,36.4,29.94,SE,135,0.7,0.9,92,0.00,,,0.00,WUHU216HW,2013-04-12 12:08:00,
2013-04-12 05:13:00,38.5,36.4,29.94,SSE,158,0.0,0.9,92,0.00,,,0.00,WUHU216HW,2013-04-12 12:13:00,
2013-04-12 05:18:00,38.5,36.4,29.94,SSE,158,0.0,0.4,92,0.00,,,0.00,WUHU216HW,2013-04-12 12:18:00,
2013-04-12 05:23:00,38.2,36.0,29.94,SSE,158,0.0,0.0,92,0.00,,,0.00,WUHU216HW,2013-04-12 12:23:00,
2013-04-12 05:28:00,37.8,35.6,29.93,SE,135,0.0,0.9,92,0.00,,,0.00,WUHU216HW,2013-04-12 12:28:00,
2013-04-12 05:33:00,37.8,35.6,29.93,SE,135,0.0,0.9,92,0.00,,,0.00,WUHU216HW,2013-04-12 12:33:00,
2013-04-12 05:38:00,37.4,35.3,29.93,SSE,158,0.0,0.2,92,0.00,,,0.00,WUHU216HW,2013-04-12 12:38:00,
2013-04-12 05:43:00,37.4,35.6,29.93,ENE,68,0.0,0.4,93,0.00,,,0.00,WUHU216HW,2013-04-12 12:43:00,
2013-04-12 05:48:00,37.1,35.2,29.92,East,90,0.4,1.1,93,0.00,,,0.00,WUHU216HW,2013-04-12 12:48:00,
2013-04-12 05:53:00,36.9,34.7,29.92,East,90,0.0,1.1,92,0.00,,,0.00,WUHU216HW,2013-04-12 12:53:00,
2013-04-12 05:58:00,36.7,34.6,29.92,SW,225,0.0,0.4,92,0.00,,,0.00,WUHU216HW,2013-04-12 12:58:00,
2013-04-12 06:03:00,36.7,34.6,29.92,SW,225,0.0,0.4,92,0.00,,,0.00,WUHU216HW,2013-04-12 13:03:00,
2013-04-12 06:08:00,36.7,34.6,29.91,South,180,0.0,0.0,92,0.00,,,0.00,WUHU216HW,2013-04-12 13:08:00,
2013-04-12 06:13:00,36.5,34.4,29.91,South,180,0.4,0.7,92,0.00,,,0.00,WUHU216HW,2013-04-12 13:13:00,
2013-04-12 06:18:00,36.5,34.4,29.91,WSW,248,0.4,1.1,92,0.00,,,0.00,WUHU216HW,2013-04-12 13:18:00,
2013-04-12 06:23:00,36.2,34.0,29.91,East,90,0.0,1.1,92,0.00,,,0.00,WUHU216HW,2013-04-12 13:23:00,
2013-04-12 06:28:00,36.0,33.8,29.91,East,90,0.0,0.7,92,0.00,,,0.00,WUHU216HW,2013-04-12 13:28:00,
2013-04-12 06:33:00,36.0,34.1,29.91,East,90,0.0,0.0,93,0.00,,,0.00,WUHU216HW,2013-04-12 13:33:00,
2013-04-12 06:38:00,36.2,34.3,29.90,SSE,158,0.7,1.1,93,0.00,,,0.00,WUHU216HW,2013-04-12 13:38:00,
2013-04-12 06:43:00,36.2,34.0,29.90,SSE,158,0.0,1.1,92,0.00,,,0.00,WUHU216HW,2013-04-12 13:43:00,
2013-04-12 06:48:00,36.0,33.8,29.90,SSE,158,0.0,0.9,92,0.00,,,0.00,WUHU216HW,2013-04-12 13:48:00,
2013-04-12 06:53:00,36.0,33.8,29.90,SSE,158,0.0,0.0,92,0.00,,,0.00,WUHU216HW,2013-04-12 13:53:00,
2013-04-12 06:58:00,36.0,34.1,29.90,SSE,158,0.0,0.0,93,0.00,,,0.00,WUHU216HW,2013-04-12 13:58:00,
2013-04-12 07:03:00,36.4,34.5,29.90,SSE,158,0.0,0.0,93,0.00,,,0.00,WUHU216HW,2013-04-12 14:03:00,
2013-04-12 07:08:00,36.5,34.7,29.90,ENE,68,0.0,0.0,93,0.00,,,0.00,WUHU216HW,2013-04-12 14:08:00,
2013-04-12 07:13:00,36.9,35.0,29.90,NNW,338,0.0,0.2,93,0.00,,,0.00,WUHU216HW,2013-04-12 14:13:00,
2013-04-12 07:18:00,37.3,35.4,29.90,NNW,338,0.0,0.2,93,0.00,,,0.00,WUHU216HW,2013-04-12 14:18:00,
2013-04-12 07:24:00,37.4,35.6,29.90,NW,315,0.0,0.0,93,0.00,,,0.00,WUHU216HW,2013-04-12 14:24:00,
2013-04-12 07:29:00,37.8,35.9,29.90,South,180,0.7,0.7,93,0.00,,,0.00,WUHU216HW,2013-04-12 14:29:00,
2013-04-12 07:34:00,37.8,35.6,29.90,SW,225,1.1,1.1,92,0.00,,,0.00,WUHU216HW,2013-04-12 14:34:00,
2013-04-12 07:39:00,38.0,35.8,29.89,WSW,248,0.0,1.1,92,0.00,,,0.00,WUHU216HW,2013-04-12 14:39:00,
2013-04-12 07:44:00,38.2,36.3,29.89,SSW,203,0.7,0.7,93,0.00,,,0.00,WUHU216HW,2013-04-12 14:44:00,
2013-04-12 07:48:00,38.7,36.5,29.89,SSW,203,0.0,0.7,92,0.00,,,0.00,WUHU216HW,2013-04-12 14:48:00,
2013-04-12 07:53:00,38.9,36.7,29.89,SSW,203,0.0,0.4,92,0.00,,,0.00,WUHU216HW,2013-04-12 14:53:00,
2013-04-12 07:58:00,39.4,37.8,29.89,SSW,203,0.0,0.0,94,0.00,,,0.00,WUHU216HW,2013-04-12 14:58:00,
2013-04-12 08:03:00,40.0,38.3,29.88,SSW,203,0.2,0.2,94,0.00,,,0.00,WUHU216HW,2013-04-12 15:03:00,
2013-04-12 08:08:00,40.3,38.4,29.88,South,180,0.0,0.2,93,0.00,,,0.00,WUHU216HW,2013-04-12 15:08:00,
2013-04-12 08:13:00,40.7,38.8,29.88,SSW,203,0.9,0.9,93,0.00,,,0.00,WUHU216HW,2013-04-12 15:13:00,
2013-04-12 08:18:00,41.2,39.3,29.88,SSW,203,0.0,1.1,93,0.00,,,0.00,WUHU216HW,2013-04-12 15:18:00,
2013-04-12 08:23:00,41.8,39.9,29.87,SSW,203,2.5,2.5,93,0.00,,,0.00,WUHU216HW,2013-04-12 15:23:00,
2013-04-12 08:28:00,41.8,39.9,29.87,SW,225,2.7,2.7,93,0.00,,,0.00,WUHU216HW,2013-04-12 15:28:00,
2013-04-12 08:33:00,42.1,40.2,29.87,South,180,1.8,2.7,93,0.00,,,0.00,WUHU216HW,2013-04-12 15:33:00,
2013-04-12 08:38:00,42.5,40.3,29.87,WSW,248,1.8,2.5,92,0.00,,,0.00,WUHU216HW,2013-04-12 15:38:00,
2013-04-12 08:43:00,43.0,40.6,29.88,WSW,248,2.5,2.7,91,0.00,,,0.00,WUHU216HW,2013-04-12 15:43:00,
2013-04-12 08:48:00,43.4,40.4,29.88,South,180,2.5,2.7,89,0.00,,,0.00,WUHU216HW,2013-04-12 15:48:00,
2013-04-12 08:53:00,43.6,40.2,29.87,East,90,0.4,2.5,88,0.00,,,0.00,WUHU216HW,2013-04-12 15:53:00,
2013-04-12 08:58:00,43.7,40.4,29.87,SW,225,1.3,2.5,88,0.00,,,0.00,WUHU216HW,2013-04-12 15:58:00,
2013-04-12 09:03:00,44.1,40.8,29.87,SSW,203,1.6,2.5,88,0.00,,,0.00,WUHU216HW,2013-04-12 16:03:00,
2013-04-12 09:08:00,44.8,41.5,29.87,ESE,113,1.8,2.0,88,0.00,,,0.00,WUHU216HW,2013-04-12 16:08:00,
2013-04-12 09:13:00,45.7,42.1,29.87,SW,225,0.4,2.0,87,0.00,,,0.00,WUHU216HW,2013-04-12 16:13:00,
2013-04-12 09:18:00,46.3,40.8,29.86,SE,135,1.1,2.0,81,0.00,,,0.00,WUHU216HW,2013-04-12 16:18:00,
2013-04-12 09:23:00,46.6,41.8,29.86,SW,225,2.0,2.5,83,0.00,,,0.00,WUHU216HW,2013-04-12 16:23:00,
2013-04-12 09:28:00,46.6,40.5,29.86,SE,135,1.8,3.4,79,0.00,,,0.00,WUHU216HW,2013-04-12 16:28:00,
2013-04-12 09:33:00,47.2,41.7,29.86,SSW,203,2.7,3.4,81,0.00,,,0.00,WUHU216HW,2013-04-12 16:33:00,
2013-04-12 09:38:00,47.0,40.9,29.86,SSW,203,2.9,3.6,79,0.00,,,0.00,WUHU216HW,2013-04-12 16:38:00,
2013-04-12 09:43:00,47.2,41.3,29.85,SW,225,2.5,3.6,80,0.00,,,0.00,WUHU216HW,2013-04-12 16:43:00,
2013-04-12 09:48:00,47.5,41.3,29.85,SSW,203,4.7,5.4,79,0.00,,,0.00,WUHU216HW,2013-04-12 16:48:00,
2013-04-12 09:53:00,47.5,41.0,29.85,SW,225,2.9,5.4,78,0.00,,,0.00,WUHU216HW,2013-04-12 16:53:00,
2013-04-12 09:58:00,47.5,41.0,29.85,SW,225,2.9,3.4,78,0.00,,,0.00,WUHU216HW,2013-04-12 16:58:00,
2013-04-12 10:03:00,47.5,40.6,29.85,SW,225,5.1,5.1,77,0.00,,,0.00,WUHU216HW,2013-04-12 17:03:00,
2013-04-12 10:08:00,47.2,40.0,29.84,SW,225,5.4,5.4,76,0.00,,,0.00,WUHU216HW,2013-04-12 17:08:00,
2013-04-12 10:13:00,47.2,39.6,29.84,SSW,203,2.2,5.4,75,0.00,,,0.00,WUHU216HW,2013-04-12 17:13:00,
2013-04-12 10:18:00,47.2,40.0,29.84,SSW,203,3.1,3.4,76,0.00,,,0.00,WUHU216HW,2013-04-12 17:18:00,
2013-04-12 10:23:00,47.7,40.2,29.84,SSE,158,2.2,3.4,75,0.00,,,0.00,WUHU216HW,2013-04-12 17:23:00,
2013-04-12 10:28:00,47.9,40.6,29.83,SSW,203,0.9,4.5,76,0.00,,,0.00,WUHU216HW,2013-04-12 17:28:00,
2013-04-12 10:34:00,48.2,41.0,29.83,SE,135,1.3,4.5,76,0.00,,,0.00,WUHU216HW,2013-04-12 17:34:00,
2013-04-12 10:39:00,48.4,41.1,29.83,ESE,113,0.4,2.5,76,0.00,,,0.00,WUHU216HW,2013-04-12 17:39:00,
2013-04-12 10:44:00,47.9,40.0,29.83,SW,225,2.0,2.5,74,0.00,,,0.00,WUHU216HW,2013-04-12 17:44:00,
2013-04-12 10:49:00,47.9,40.2,29.83,WSW,248,0.4,2.5,75,0.00,,,0.00,WUHU216HW,2013-04-12 17:49:00,
2013-04-12 10:54:00,47.5,40.0,29.83,SW,225,1.1,2.5,75,0.00,,,0.00,WUHU216HW,2013-04-12 17:54:00,
2013-04-12 10:59:00,47.5,40.0,29.83,SSW,203,1.8,3.4,75,0.00,,,0.00,WUHU216HW,2013-04-12 17:59:00,
2013-04-12 11:04:00,47.5,40.0,29.83,South,180,1.1,3.4,75,0.00,,,0.00,WUHU216HW,2013-04-12 18:04:00,
2013-04-12 11:09:00,47.9,40.0,29.82,SSW,203,0.4,1.8,74,0.00,,,0.00,WUHU216HW,2013-04-12 18:09:00,
2013-04-12 11:14:00,47.9,40.2,29.82,WSW,248,1.1,1.1,75,0.00,,,0.00,WUHU216HW,2013-04-12 18:14:00,
2013-04-12 11:20:00,48.2,40.2,29.82,SW,225,0.4,2.0,74,0.00,,,0.00,WUHU216HW,2013-04-12 18:20:00,
2013-04-12 11:25:00,49.1,40.8,29.82,SSE,158,1.1,2.0,73,0.00,,,0.00,WUHU216HW,2013-04-12 18:25:00,
2013-04-12 11:29:00,49.0,40.3,29.82,West,270,0.9,1.8,72,0.00,,,0.00,WUHU216HW,2013-04-12 18:29:00,
2013-04-12 11:32:00,48.6,40.0,29.81,West,270,1.1,3.4,72,0.00,,,0.00,WUHU216HW,2013-04-12 18:32:00,
2013-04-12 11:33:00,48.4,39.8,29.81,West,270,1.1,3.4,72,0.00,,,0.00,WUHU216HW,2013-04-12 18:33:00,
2013-04-12 11:35:00,48.4,39.8,29.81,NNW,338,0.0,3.4,72,0.00,,,0.00,WUHU216HW,2013-04-12 18:35:00,
2013-04-12 11:36:00,48.2,39.6,29.81,North,0,0.2,3.4,72,0.00,,,0.00,WUHU216HW,2013-04-12 18:36:00,
2013-04-12 11:38:00,48.2,39.9,29.81,NNW,338,0.4,3.4,73,0.00,,,0.00,WUHU216HW,2013-04-12 18:38:00,
2013-04-12 11:41:00,48.2,39.9,29.81,WNW,293,0.4,1.1,73,0.00,,,0.00,WUHU216HW,2013-04-12 18:41:00,
2013-04-12 11:42:00,48.2,39.9,29.81,NW,315,1.1,1.1,73,0.00,,,0.00,WUHU216HW,2013-04-12 18:42:00,
2013-04-12 11:44:00,48.2,39.9,29.81,WNW,293,0.9,1.1,73,0.00,,,0.00,WUHU216HW,2013-04-12 18:44:00,
2013-04-12 11:47:00,48.4,39.8,29.81,NW,315,0.4,1.1,72,0.00,,,0.00,WUHU216HW,2013-04-12 18:47:00,
2013-04-12 11:48:00,48.6,40.2,29.81,West,270,2.0,2.0,73,0.00,,,0.00,WUHU216HW,2013-04-12 18:48:00,
2013-04-12 11:49:00,48.6,40.6,29.81,West,270,3.4,3.4,74,0.00,,,0.00,WUHU216HW,2013-04-12 18:49:00,
2013-04-12 12:00:00,49.0,40.6,29.81,SSE,158,1.8,1.8,73,0.00,,,0.00,WUHU216HW,2013-04-12 19:00:00,
2013-04-12 12:01:00,49.0,40.6,29.81,SW,225,2.5,2.5,73,0.00,,,0.00,WUHU216HW,2013-04-12 19:01:00,
2013-04-12 12:03:00,49.1,41.1,29.81,SW,225,1.1,2.5,74,0.00,,,0.00,WUHU216HW,2013-04-12 19:03:00,
2013-04-12 12:04:00,49.3,40.7,29.81,SSW,203,1.6,2.5,72,0.00,,,0.00,WUHU216HW,2013-04-12 19:04:00,
2013-04-12 12:05:00,49.1,39.8,29.81,SSE,158,1.6,2.5,70,0.00,,,0.00,WUHU216HW,2013-04-12 19:05:00,
2013-04-12 12:07:00,49.1,40.5,29.80,South,180,1.8,2.5,72,0.00,,,0.00,WUHU216HW,2013-04-12 19:07:00,
2013-04-12 12:08:00,49.1,40.5,29.80,WSW,248,2.7,2.7,72,0.00,,,0.00,WUHU216HW,2013-04-12 19:08:00,
2013-04-12 12:10:00,49.0,39.3,29.80,South,180,2.9,2.9,69,0.00,,,0.00,WUHU216HW,2013-04-12 19:10:00,
2013-04-12 12:11:00,49.0,39.6,29.80,SE,135,1.8,2.9,70,0.00,,,0.00,WUHU216HW,2013-04-12 19:11:00,
2013-04-12 12:13:00,49.0,40.3,29.80,SSE,158,0.7,2.9,72,0.00,,,0.00,WUHU216HW,2013-04-12 19:13:00,
2013-04-12 12:14:00,49.1,40.2,29.80,SSW,203,2.5,2.9,71,0.00,,,0.00,WUHU216HW,2013-04-12 19:14:00,
2013-04-12 12:16:00,49.0,39.3,29.80,South,180,1.6,2.9,69,0.00,,,0.00,WUHU216HW,2013-04-12 19:16:00,
2013-04-12 12:17:00,49.0,40.0,29.80,SSE,158,1.8,2.9,71,0.00,,,0.00,WUHU216HW,2013-04-12 19:17:00,
2013-04-12 12:26:00,48.8,40.2,29.80,South,180,0.4,2.7,72,0.00,,,0.00,WUHU216HW,2013-04-12 19:26:00,
2013-04-12 12:31:00,49.1,40.5,29.80,West,270,1.8,1.8,72,0.00,,,0.00,WUHU216HW,2013-04-12 19:31:00,
2013-04-12 12:36:00,49.0,40.3,29.80,SSW,203,1.8,1.8,72,0.00,,,0.00,WUHU216HW,2013-04-12 19:36:00,
2013-04-12 12:41:00,48.6,39.6,29.80,South,180,1.1,1.8,71,0.00,,,0.00,WUHU216HW,2013-04-12 19:41:00,
2013-04-12 12:46:00,48.4,39.8,29.80,South,180,1.8,1.8,72,0.00,,,0.00,WUHU216HW,2013-04-12 19:46:00,
2013-04-12 12:51:00,48.2,39.6,29.79,South,180,1.1,1.8,72,0.00,,,0.00,WUHU216HW,2013-04-12 19:51:00,
2013-04-12 12:56:00,48.4,39.8,29.79,SSW,203,2.5,2.5,72,0.00,,,0.00,WUHU216HW,2013-04-12 19:56:00,
2013-04-12 13:01:00,48.4,39.8,29.79,SW,225,1.1,2.5,72,0.00,,,0.00,WUHU216HW,2013-04-12 20:01:00,
2013-04-12 13:07:00,48.4,39.8,29.79,South,180,1.6,2.5,72,0.00,,,0.00,WUHU216HW,2013-04-12 20:07:00,
2013-04-12 13:12:00,48.4,39.8,29.78,South,180,0.9,2.5,72,0.00,,,0.00,WUHU216HW,2013-04-12 20:12:00,
2013-04-12 13:17:00,48.2,39.6,29.78,SW,225,1.1,2.5,72,0.00,,,0.00,WUHU216HW,2013-04-12 20:17:00,
2013-04-12 13:22:00,48.2,39.9,29.78,SSE,158,2.5,2.7,73,0.00,,,0.00,WUHU216HW,2013-04-12 20:22:00,
2013-04-12 13:27:00,47.9,39.2,29.78,SSW,203,2.0,4.0,72,0.00,,,0.00,WUHU216HW,2013-04-12 20:27:00,
2013-04-12 13:32:00,47.7,39.1,29.78,SSE,158,1.8,4.3,72,0.00,,,0.00,WUHU216HW,2013-04-12 20:32:00,
2013-04-12 13:37:00,47.5,39.2,29.78,SW,225,2.5,4.3,73,0.00,,,0.00,WUHU216HW,2013-04-12 20:37:00,
2013-04-12 13:42:00,47.5,39.6,29.78,SW,225,0.7,2.5,74,0.00,,,0.00,WUHU216HW,2013-04-12 20:42:00,
2013-04-12 13:47:00,47.5,40.0,29.78,SSE,158,0.2,3.8,75,0.00,,,0.00,WUHU216HW,2013-04-12 20:47:00,
2013-04-12 13:52:00,47.5,41.0,29.78,NNE,23,1.1,1.8,78,0.00,,,0.00,WUHU216HW,2013-04-12 20:52:00,
2013-04-12 13:57:00,47.0,40.5,29.78,SSW,203,0.0,1.8,78,0.01,,,0.01,WUHU216HW,2013-04-12 20:57:00,
2013-04-12 14:02:00,46.8,40.7,29.77,North,0,0.7,2.5,79,0.01,,,0.01,WUHU216HW,2013-04-12 21:02:00,
2013-04-12 14:07:00,46.3,41.8,29.77,East,90,1.1,2.5,84,0.02,,,0.02,WUHU216HW,2013-04-12 21:07:00,
2013-04-12 14:12:00,46.1,41.0,29.77,SSW,203,0.7,2.0,82,0.02,,,0.02,WUHU216HW,2013-04-12 21:12:00,
2013-04-12 14:17:00,45.9,41.0,29.77,SW,225,0.7,1.3,83,0.03,,,0.03,WUHU216HW,2013-04-12 21:17:00,
2013-04-12 14:22:00,45.5,40.7,29.77,SSE,158,3.1,4.3,83,0.04,,,0.03,WUHU216HW,2013-04-12 21:22:00,
2013-04-12 14:27:00,45.2,40.3,29.76,SW,225,2.0,4.3,83,0.04,,,0.04,WUHU216HW,2013-04-12 21:27:00,
2013-04-12 14:32:00,45.2,41.2,29.76,SE,135,0.7,2.5,86,0.05,,,0.05,WUHU216HW,2013-04-12 21:32:00,
2013-04-12 14:37:00,45.0,41.0,29.76,ESE,113,0.9,1.6,86,0.05,,,0.05,WUHU216HW,2013-04-12 21:37:00,
2013-04-12 14:42:00,45.0,41.7,29.76,ESE,113,0.7,1.6,88,0.06,,,0.06,WUHU216HW,2013-04-12 21:42:00,
2013-04-12 14:47:00,45.0,41.7,29.75,SE,135,1.6,1.6,88,0.06,,,0.06,WUHU216HW,2013-04-12 21:47:00,
2013-04-12 14:52:00,44.8,41.2,29.75,SE,135,0.7,1.8,87,0.05,,,0.06,WUHU216HW,2013-04-12 21:52:00,
2013-04-12 14:57:00,44.8,41.5,29.75,East,90,1.1,1.8,88,0.06,,,0.07,WUHU216HW,2013-04-12 21:57:00,
2013-04-12 15:02:00,44.6,41.7,29.74,SE,135,0.4,4.5,89,0.05,,,0.07,WUHU216HW,2013-04-12 22:02:00,
2013-04-12 15:07:00,44.6,41.3,29.74,SSE,158,0.7,4.5,88,0.06,,,0.09,WUHU216HW,2013-04-12 22:07:00,
2013-04-12 15:12:00,44.6,42.2,29.74,SE,135,2.9,2.9,91,0.06,,,0.09,WUHU216HW,2013-04-12 22:12:00,
2013-04-12 15:17:00,44.5,41.1,29.74,WSW,248,1.8,2.9,88,0.08,,,0.11,WUHU216HW,2013-04-12 22:17:00,
2013-04-12 15:22:00,44.3,41.3,29.75,SW,225,1.1,2.5,89,0.07,,,0.11,WUHU216HW,2013-04-12 22:22:00,
2013-04-12 15:27:00,44.3,41.3,29.74,SW,225,2.2,5.6,89,0.08,,,0.12,WUHU216HW,2013-04-12 22:27:00,
2013-04-12 15:32:00,44.1,40.8,29.74,South,180,3.4,5.6,88,0.08,,,0.14,WUHU216HW,2013-04-12 22:32:00,
2013-04-12 15:37:00,43.7,40.4,29.74,SE,135,0.4,4.7,88,0.08,,,0.14,WUHU216HW,2013-04-12 22:37:00,
2013-04-12 15:42:00,43.6,40.6,29.73,SE,135,2.2,4.7,89,0.09,,,0.14,WUHU216HW,2013-04-12 22:42:00,
2013-04-12 15:47:00,43.4,40.4,29.73,SE,135,0.7,4.3,89,0.09,,,0.16,WUHU216HW,2013-04-12 22:47:00,
2013-04-12 15:52:00,43.2,40.5,29.73,SSE,158,2.2,4.0,90,0.09,,,0.16,WUHU216HW,2013-04-12 22:52:00,
2013-04-12 15:57:00,43.2,40.5,29.72,SE,135,1.8,2.7,90,0.09,,,0.16,WUHU216HW,2013-04-12 22:57:00,
2013-04-12 16:02:00,43.2,40.8,29.72,ESE,113,1.6,2.9,91,0.09,,,0.18,WUHU216HW,2013-04-12 23:02:00,
2013-04-12 16:07:00,43.0,40.3,29.72,SSE,158,2.5,2.9,90,0.09,,,0.18,WUHU216HW,2013-04-12 23:07:00,
2013-04-12 16:12:00,43.0,40.3,29.71,SSE,158,5.1,5.1,90,0.08,,,0.18,WUHU216HW,2013-04-12 23:12:00,
2013-04-12 16:17:00,42.8,40.1,29.71,SSE,158,0.4,5.6,90,0.08,,,0.20,WUHU216HW,2013-04-12 23:17:00,
2013-04-12 16:22:00,42.8,40.1,29.71,ESE,113,1.1,5.6,90,0.07,,,0.20,WUHU216HW,2013-04-12 23:22:00,
2013-04-12 16:27:00,42.8,40.4,29.70,SSE,158,1.8,2.5,91,0.08,,,0.21,WUHU216HW,2013-04-12 23:27:00,
2013-04-12 16:32:00,42.8,40.1,29.70,SE,135,2.0,6.0,90,0.06,,,0.21,WUHU216HW,2013-04-12 23:32:00,
2013-04-12 16:37:00,42.7,40.2,29.70,SE,135,1.8,6.0,91,0.07,,,0.22,WUHU216HW,2013-04-12 23:37:00,
2013-04-12 16:42:00,42.5,40.1,29.69,South,180,4.7,4.7,91,0.06,,,0.22,WUHU216HW,2013-04-12 23:42:00,
2013-04-12 16:47:00,42.3,39.9,29.69,ESE,113,1.8,4.7,91,0.07,,,0.23,WUHU216HW,2013-04-12 23:47:00,
2013-04-12 16:52:00,42.3,39.6,29.69,SE,135,1.1,5.1,90,0.06,,,0.23,WUHU216HW,2013-04-12 23:52:00,
2013-04-12 16:57:00,42.1,39.4,29.69,East,90,3.4,6.7,90,0.06,,,0.23,WUHU216HW,2013-04-12 23:57:00,
2013-04-12 17:02:00,42.1,39.7,29.69,East,90,2.0,6.7,91,0.06,,,0.23,WUHU216HW,2013-04-13 00:02:00,
2013-04-12 17:07:00,42.1,40.0,29.68,East,90,1.3,2.5,92,0.06,,,0.25,WUHU216HW,2013-04-13 00:07:00,
2013-04-12 17:12:00,41.9,40.1,29.68,East,90,2.2,2.2,93,0.05,,,0.25,WUHU216HW,2013-04-13 00:12:00,
2013-04-12 17:17:00,42.1,40.2,29.68,ESE,113,1.1,2.2,93,0.06,,,0.25,WUHU216HW,2013-04-13 00:17:00,
2013-04-12 17:22:00,42.1,40.2,29.68,ENE,68,1.6,1.8,93,0.06,,,0.25,WUHU216HW,2013-04-13 00:22:00,
2013-04-12 17:27:00,42.1,40.2,29.68,ENE,68,1.1,1.8,93,0.05,,,0.25,WUHU216HW,2013-04-13 00:27:00,
2013-04-12 17:32:00,42.1,40.2,29.67,SE,135,1.1,1.3,93,0.04,,,0.25,WUHU216HW,2013-04-13 00:32:00,
2013-04-12 17:37:00,42.1,40.2,29.66,SE,135,0.9,1.8,93,0.05,,,0.27,WUHU216HW,2013-04-13 00:37:00,
2013-04-12 17:42:00,42.1,40.2,29.66,ESE,113,0.9,1.8,93,0.05,,,0.27,WUHU216HW,2013-04-13 00:42:00,
2013-04-12 17:47:00,42.1,40.2,29.66,SE,135,0.0,0.9,93,0.05,,,0.28,WUHU216HW,2013-04-13 00:47:00,
2013-04-12 17:52:00,42.3,40.1,29.66,SE,135,0.0,1.1,92,0.04,,,0.28,WUHU216HW,2013-04-13 00:52:00,
2013-04-12 17:57:00,42.3,40.1,29.65,ESE,113,0.2,1.1,92,0.04,,,0.28,WUHU216HW,2013-04-13 00:57:00,
2013-04-12 18:02:00,42.3,40.1,29.65,East,90,0.0,0.4,92,0.03,,,0.28,WUHU216HW,2013-04-13 01:02:00,
2013-04-12 18:07:00,42.5,40.3,29.65,SSW,203,0.4,0.9,92,0.03,,,0.28,WUHU216HW,2013-04-13 01:07:00,
2013-04-12 18:12:00,42.5,40.3,29.65,SE,135,0.2,1.1,92,0.02,,,0.28,WUHU216HW,2013-04-13 01:12:00,
2013-04-12 18:17:00,42.5,40.1,29.65,South,180,0.9,1.1,91,0.03,,,0.29,WUHU216HW,2013-04-13 01:17:00,
2013-04-12 18:22:00,42.5,40.3,29.65,SW,225,0.0,1.1,92,0.03,,,0.29,WUHU216HW,2013-04-13 01:22:00,
2013-04-12 18:27:00,42.7,40.5,29.64,SSW,203,0.0,0.7,92,0.03,,,0.29,WUHU216HW,2013-04-13 01:27:00,
2013-04-12 18:33:00,42.5,40.1,29.64,East,90,0.0,0.7,91,0.03,,,0.30,WUHU216HW,2013-04-13 01:33:00,
2013-04-12 18:38:00,42.5,40.3,29.64,ENE,68,0.2,1.1,92,0.03,,,0.30,WUHU216HW,2013-04-13 01:38:00,
2013-04-12 18:43:00,42.5,40.6,29.64,ESE,113,1.3,4.0,93,0.03,,,0.30,WUHU216HW,2013-04-13 01:43:00,
2013-04-12 18:48:00,42.5,40.3,29.64,ESE,113,0.2,4.0,92,0.03,,,0.31,WUHU216HW,2013-04-13 01:48:00,
2013-04-12 18:53:00,42.5,40.6,29.64,East,90,0.0,0.9,93,0.04,,,0.32,WUHU216HW,2013-04-13 01:53:00,
2013-04-12 18:58:00,42.3,40.4,29.64,East,90,0.9,1.6,93,0.04,,,0.32,WUHU216HW,2013-04-13 01:58:00,
2013-04-12 19:03:00,42.1,40.2,29.63,East,90,0.7,1.6,93,0.04,,,0.32,WUHU216HW,2013-04-13 02:03:00,
2013-04-12 19:08:00,42.1,40.2,29.63,ENE,68,1.1,1.3,93,0.05,,,0.33,WUHU216HW,2013-04-13 02:08:00,
2013-04-12 19:13:00,42.1,40.2,29.63,ENE,68,1.1,1.3,93,0.04,,,0.33,WUHU216HW,2013-04-13 02:13:00,
2013-04-12 19:18:00,42.1,40.2,29.62,ENE,68,0.9,1.1,93,0.05,,,0.34,WUHU216HW,2013-04-13 02:18:00,
2013-04-12 19:23:00,42.1,40.2,29.62,SE,135,0.2,1.1,93,0.05,,,0.34,WUHU216HW,2013-04-13 02:23:00,
2013-04-12 19:28:00,41.9,40.1,29.62,ENE,68,0.0,1.1,93,0.04,,,0.34,WUHU216HW,2013-04-13 02:28:00,
2013-04-12 19:33:00,41.9,40.1,29.62,NE,45,1.3,1.3,93,0.05,,,0.35,WUHU216HW,2013-04-13 02:33:00,
2013-04-12 19:38:00,41.8,40.1,29.61,East,90,1.1,1.3,94,0.05,,,0.35,WUHU216HW,2013-04-13 02:38:00,
2013-04-12 19:43:00,41.8,40.1,29.61,East,90,1.8,3.1,94,0.05,,,0.36,WUHU216HW,2013-04-13 02:43:00,
2013-04-12 19:48:00,41.8,40.1,29.61,SE,135,1.6,3.1,94,0.04,,,0.36,WUHU216HW,2013-04-13 02:48:00,
2013-04-12 19:53:00,41.8,40.1,29.60,SE,135,0.7,1.6,94,0.04,,,0.36,WUHU216HW,2013-04-13 02:53:00,
2013-04-12 19:58:00,41.8,40.1,29.60,SE,135,0.0,2.0,94,0.05,,,0.37,WUHU216HW,2013-04-13 02:58:00,
2013-04-12 20:03:00,41.8,40.1,29.60,East,90,1.1,2.0,94,0.05,,,0.37,WUHU216HW,2013-04-13 03:03:00,
2013-04-12 20:08:00,41.8,40.1,29.60,East,90,1.1,1.8,94,0.04,,,0.37,WUHU216HW,2013-04-13 03:08:00,
2013-04-12 20:13:00,41.8,40.1,29.59,ESE,113,1.6,2.0,94,0.04,,,0.37,WUHU216HW,2013-04-13 03:13:00,
2013-04-12 20:18:00,41.8,40.1,29.59,South,180,2.7,2.7,94,0.04,,,0.38,WUHU216HW,2013-04-13 03:18:00,
2013-04-12 20:23:00,41.8,40.1,29.59,SE,135,2.5,2.7,94,0.04,,,0.38,WUHU216HW,2013-04-13 03:23:00,
2013-04-12 20:28:00,41.8,40.1,29.58,West,270,0.0,2.5,94,0.03,,,0.38,WUHU216HW,2013-04-13 03:28:00,
2013-04-12 20:33:00,41.8,40.1,29.59,SSW,203,0.4,1.1,94,0.03,,,0.38,WUHU216HW,2013-04-13 03:33:00,
2013-04-12 20:38:00,41.8,39.9,29.58,SSW,203,0.2,0.9,93,0.02,,,0.38,WUHU216HW,2013-04-13 03:38:00,
2013-04-12 20:43:00,41.8,39.9,29.58,SW,225,0.4,1.8,93,0.03,,,0.39,WUHU216HW,2013-04-13 03:43:00,
2013-04-12 20:48:00,41.8,39.9,29.58,WSW,248,1.1,1.8,93,0.03,,,0.39,WUHU216HW,2013-04-13 03:48:00,
2013-04-12 20:53:00,41.8,39.9,29.58,WSW,248,1.1,1.1,93,0.03,,,0.40,WUHU216HW,2013-04-13 03:53:00,
2013-04-12 20:58:00,41.8,39.9,29.58,South,180,0.0,1.6,93,0.03,,,0.40,WUHU216HW,2013-04-13 03:58:00,
2013-04-12 21:00:00,41.8,39.9,29.58,WSW,248,1.8,1.8,93,0.03,,,0.40,WUHU216HW,2013-04-13 04:00:00,
2013-04-12 21:05:00,41.8,39.9,29.58,South,180,0.0,1.8,93,0.03,,,0.40,WUHU216HW,2013-04-13 04:05:00,
2013-04-12 21:10:00,41.9,40.1,29.57,South,180,1.1,1.8,93,0.04,,,0.41,WUHU216HW,2013-04-13 04:10:00,
2013-04-12 21:15:00,41.9,40.1,29.57,SSW,203,1.8,1.8,93,0.05,,,0.42,WUHU216HW,2013-04-13 04:15:00,
2013-04-12 21:20:00,41.9,40.1,29.57,SW,225,0.9,2.0,93,0.04,,,0.42,WUHU216HW,2013-04-13 04:20:00,
2013-04-12 21:25:00,41.9,40.1,29.57,SSW,203,2.5,2.5,93,0.04,,,0.42,WUHU216HW,2013-04-13 04:25:00,
2013-04-12 21:30:00,41.9,40.3,29.57,ESE,113,0.9,2.5,94,0.05,,,0.43,WUHU216HW,2013-04-13 04:30:00,
2013-04-12 21:35:00,41.9,40.3,29.57,SE,135,0.4,2.2,94,0.05,,,0.43,WUHU216HW,2013-04-13 04:35:00,
2013-04-12 21:40:00,41.9,40.3,29.57,SE,135,0.4,2.5,94,0.04,,,0.43,WUHU216HW,2013-04-13 04:40:00,
2013-04-12 21:45:00,42.1,40.5,29.57,SSW,203,1.1,3.4,94,0.04,,,0.43,WUHU216HW,2013-04-13 04:45:00,
2013-04-12 21:50:00,42.1,40.5,29.56,SSW,203,0.0,3.6,94,0.03,,,0.43,WUHU216HW,2013-04-13 04:50:00,
2013-04-12 21:55:00,42.1,40.5,29.57,SE,135,0.4,3.6,94,0.03,,,0.43,WUHU216HW,2013-04-13 04:55:00,
2013-04-12 22:00:00,42.3,40.7,29.57,South,180,1.1,1.8,94,0.03,,,0.43,WUHU216HW,2013-04-13 05:00:00,
2013-04-12 22:05:00,42.5,40.9,29.57,SSE,158,6.5,6.5,94,0.02,,,0.43,WUHU216HW,2013-04-13 05:05:00,
2013-04-12 22:10:00,42.7,41.0,29.57,SE,135,3.6,6.5,94,0.02,,,0.43,WUHU216HW,2013-04-13 05:10:00,
2013-04-12 22:15:00,43.0,41.7,29.57,South,180,2.7,6.0,95,0.01,,,0.43,WUHU216HW,2013-04-13 05:15:00,
2013-04-12 22:20:00,43.4,41.8,29.57,SSW,203,3.4,6.0,94,0.01,,,0.43,WUHU216HW,2013-04-13 05:20:00,
2013-04-12 22:25:00,43.6,41.9,29.57,SSW,203,6.7,6.9,94,0.00,,,0.43,WUHU216HW,2013-04-13 05:25:00,
2013-04-12 22:30:00,43.7,42.1,29.57,SSE,158,6.0,7.8,94,0.00,,,0.43,WUHU216HW,2013-04-13 05:30:00,
2013-04-12 22:35:00,43.6,41.7,29.57,SW,225,6.5,7.8,93,0.00,,,0.43,WUHU216HW,2013-04-13 05:35:00,
2013-04-12 22:40:00,43.6,41.7,29.57,South,180,5.8,11.9,93,0.00,,,0.43,WUHU216HW,2013-04-13 05:40:00,
2013-04-12 22:45:00,43.4,41.5,29.57,SSW,203,7.2,11.9,93,0.00,,,0.43,WUHU216HW,2013-04-13 05:45:00,
2013-04-12 22:50:00,43.2,41.3,29.58,SSW,203,7.6,10.7,93,0.00,,,0.43,WUHU216HW,2013-04-13 05:50:00,
2013-04-12 22:55:00,42.8,40.4,29.58,SSE,158,9.4,10.7,91,0.00,,,0.43,WUHU216HW,2013-04-13 05:55:00,
2013-04-12 23:00:00,42.5,39.8,29.59,WSW,248,7.4,10.1,90,0.00,,,0.43,WUHU216HW,2013-04-13 06:00:00,
2013-04-12 23:05:00,42.1,39.4,29.59,SSE,158,7.4,9.2,90,0.00,,,0.43,WUHU216HW,2013-04-13 06:05:00,
2013-04-12 23:10:00,41.9,38.6,29.60,South,180,8.1,8.5,88,0.00,,,0.43,WUHU216HW,2013-04-13 06:10:00,
2013-04-12 23:15:00,41.8,38.4,29.59,South,180,2.2,8.5,88,0.00,,,0.43,WUHU216HW,2013-04-13 06:15:00,
2013-04-12 23:20:00,41.2,37.6,29.59,SSW,203,3.8,7.8,87,0.00,,,0.43,WUHU216HW,2013-04-13 06:20:00,
2013-04-12 23:25:00,40.7,36.5,29.59,SSW,203,6.0,7.8,85,0.00,,,0.43,WUHU216HW,2013-04-13 06:25:00,
2013-04-12 23:30:00,40.5,36.9,29.60,SSE,158,4.7,6.9,87,0.00,,,0.43,WUHU216HW,2013-04-13 06:30:00,
2013-04-12 23:35:00,40.0,36.4,29.60,South,180,6.7,6.9,87,0.00,,,0.43,WUHU216HW,2013-04-13 06:35:00,
2013-04-12 23:40:00,40.0,36.4,29.61,SSW,203,4.7,6.7,87,0.00,,,0.43,WUHU216HW,2013-04-13 06:40:00,
2013-04-12 23:45:00,39.6,35.7,29.61,South,180,5.6,8.5,86,0.00,,,0.43,WUHU216HW,2013-04-13 06:45:00,
2013-04-12 23:50:00,39.6,35.7,29.61,South,180,3.4,9.8,86,0.00,,,0.43,WUHU216HW,2013-04-13 06:50:00,
2013-04-12 23:55:00,39.4,35.6,29.61,South,180,3.4,10.5,86,0.00,,,0.43,WUHU216HW,2013-04-13 06:55:00,